Camden, NC

1:12 AM EDT on August 27, 2016 (GMT -0400)
Elizabeth City Cgas-Regional

Weather History for KECG - September, 2013

Change the Weather History Date:

Monday, September 23, 2013

  Actual Average Record
Temperature  
Mean Temperature 59 °F 70 °F  
Max Temperature 69 °F 79 °F 93 °F (1970)
Min Temperature 48 °F 61 °F 45 °F (1983)
Degree Days  
Heating Degree Days 6 1  
Month to date heating degree days 8 3  
Since 1 July heating degree days 8 3  
Cooling Degree Days 0 6  
Month to date cooling degree days 178 193  
Year to date cooling degree days 1558 1489  
Growing Degree Days 10 (Base 50)    
Moisture  
Dew Point 52 °F    
Average Humidity 74    
Maximum Humidity 96    
Minimum Humidity 52    
Precipitation  
Precipitation 0.00 in 0.12 in 1.22 in (2011)
Month to date precipitation 0.84 3.07  
Year to date precipitation 30.87 37.03  
Snow  
Snow 0.00 in - 0.00 in (2002)
Month to date snowfall 0.0  
Since 1 July snowfall 0.0  
Snow Depth 0.00 in    
Sea Level Pressure  
Sea Level Pressure 30.00 in    
Wind  
Wind Speed 9 mph (NNE)    
Max Wind Speed 20 mph    
Max Gust Speed 24 mph    
Visibility 10 miles    
Events      
T = Trace of Precipitation, MM = Missing Value Source: NWS Daily Summary

Daily Weather History Graph

Daily Weather History Graph

Search for Another Location

Airport or City:

Trip Planner

Search our weather history database for the weather conditions in past years. The results will help you decide how hot, cold, wet, or windy it might be!

Date:

Astronomy

Sep. 23, 2013 Rise Set
Actual Time 6:53 AM EDT 6:59 PM EDT
Civil Twilight 6:27 AM EDT 7:25 PM EDT
Nautical Twilight 5:57 AM EDT 7:55 PM EDT
Astronomical Twilight 5:27 AM EDT 8:25 PM EDT
Moon 9:38 PM EDT (9/23) 11:02 AM EDT (9/23)
Length of Visible Light 12h 57m
Length of Day
12h 06m
Waning Gibbous, 81% of the Moon is Illuminated
Sep 23
Waning Gibbous
Sep 26
Last Quarter
Oct 4
New
Oct 11
First Quarter
Oct 18
Full

Hourly Weather History & Observations

Time (EDT) Temp. Dew Point Humidity Pressure Visibility Wind Dir Wind Speed Gust Speed Precip Events Conditions
12:54 AM 66.9 °F 57.9 °F 73% 29.87 in 10.0 mi North 9.2 mph - N/A   Overcast
1:54 AM 66.9 °F 55.9 °F 68% 29.89 in 10.0 mi North 9.2 mph - N/A   Overcast
2:54 AM 64.0 °F 55.0 °F 73% 29.89 in 10.0 mi North 9.2 mph - N/A   Clear
3:54 AM 63.0 °F 54.0 °F 72% 29.90 in 10.0 mi North 12.7 mph - N/A   Clear
4:54 AM 63.0 °F 51.1 °F 65% 29.91 in 10.0 mi North 11.5 mph - N/A   Clear
5:54 AM 62.1 °F 52.0 °F 70% 29.93 in 10.0 mi North 11.5 mph - N/A   Clear
6:54 AM 60.1 °F 52.0 °F 75% 29.96 in 10.0 mi NNW 10.4 mph - N/A   Clear
7:54 AM 61.0 °F 53.1 °F 75% 29.99 in 10.0 mi NNW 11.5 mph - N/A   Clear
8:54 AM 63.0 °F 53.1 °F 70% 30.01 in 10.0 mi North 16.1 mph - N/A   Clear
9:54 AM 66.0 °F 51.1 °F 59% 30.03 in 10.0 mi North 15.0 mph - N/A   Clear
10:54 AM 66.0 °F 48.9 °F 54% 30.04 in 10.0 mi NNE 15.0 mph 20.7 mph N/A   Partly Cloudy
11:54 AM 68.0 °F 50.0 °F 52% 30.04 in 10.0 mi North 13.8 mph - N/A   Scattered Clouds
12:54 PM 66.0 °F 48.9 °F 54% 30.04 in 10.0 mi North 15.0 mph - N/A   Overcast
1:54 PM 66.0 °F 50.0 °F 56% 30.04 in 10.0 mi North 11.5 mph - N/A   Overcast
2:54 PM 66.0 °F 50.0 °F 56% 30.03 in 10.0 mi North 11.5 mph - N/A   Overcast
3:54 PM 66.9 °F 50.0 °F 54% 30.03 in 10.0 mi NE 10.4 mph - N/A   Scattered Clouds
4:54 PM 66.0 °F 48.9 °F 54% 30.03 in 10.0 mi NNE 8.1 mph - N/A   Partly Cloudy
5:54 PM 64.0 °F 50.0 °F 60% 30.04 in 10.0 mi NE 8.1 mph - N/A   Scattered Clouds
6:54 PM 62.1 °F 51.1 °F 67% 30.04 in 10.0 mi ENE 4.6 mph - N/A   Overcast
7:54 PM 59.0 °F 51.1 °F 75% 30.05 in 10.0 mi ENE 6.9 mph - N/A   Partly Cloudy
8:54 PM 59.0 °F 51.1 °F 75% 30.06 in 10.0 mi NE 5.8 mph - N/A   Clear
9:54 PM 60.1 °F 51.1 °F 72% 30.08 in 10.0 mi NNE 6.9 mph - N/A   Clear
10:54 PM 52.0 °F 50.0 °F 93% 30.09 in 10.0 mi Calm Calm - N/A   Clear
11:54 PM 51.1 °F 50.0 °F 96% 30.08 in 9.0 mi Calm Calm - N/A   Clear